| time (UTC) | temp F | wind direction | speed knots | gust knots | rain 1hr in | rain 24hr in | rain mn in | humidity % | barometer mb |
| 20260504151015 | 65 | 0 | 0.0 | 3.5 | 0.00 | 0.00 | 0.00 | 48 | 1013.6 |
| 20260504150511 | 65 | 0 | 0.0 | 3.5 | 0.00 | 0.00 | 0.00 | 45 | 1013.6 |
| 20260504141014 | 61 | 0 | 0.0 | 1.7 | 0.00 | 0.00 | 0.00 | 57 | 1013.6 |
| 20260504140510 | 61 | 0 | 0.0 | 0.0 | 0.00 | 0.00 | 0.00 | 59 | 1013.6 |
| 20260504130520 | 55 | 0 | 0.0 | 2.6 | 0.00 | 0.00 | 0.00 | 69 | 1014.0 |
| 20260504110512 | 42 | 0 | 0.0 | 0.0 | 0.00 | 0.00 | 0.00 | 82 | 1014.5 |
| 20260504100515 | 40 | 0 | 0.0 | 1.7 | 0.00 | 0.00 | 0.00 | 80 | 1014.4 |
| 20260504060141 | 40 | 0 | 0.0 | 0.0 | 0.00 | 0.00 | 0.00 | 73 | 1014.3 |
| 20260504045511 | 41 | 0 | 0.0 | 0.0 | 0.00 | 0.00 | 0.00 | 73 | 1014.5 |
| 20260504045332 | 41 | 0 | 0.0 | 0.0 | 0.00 | 0.00 | 0.00 | 72 | 1014.4 |
| 20260504044541 | 41 | 0 | 0.0 | 0.0 | 0.00 | 0.00 | 0.00 | 72 | 1014.5 |
| 20260504044014 | 41 | 0 | 0.0 | 0.0 | 0.00 | 0.00 | 0.00 | 72 | 1014.5 |
| 20260504043517 | 41 | 0 | 0.0 | 0.0 | 0.00 | 0.00 | 0.00 | 72 | 1014.4 |
| 20260504043034 | 42 | 0 | 0.0 | 0.0 | 0.00 | 0.00 | 0.00 | 70 | 1014.4 |
| 20260504042513 | 42 | 0 | 0.0 | 0.0 | 0.00 | 0.00 | 0.00 | 71 | 1014.3 |
| 20260504042009 | 42 | 0 | 0.0 | 0.0 | 0.00 | 0.00 | 0.00 | 71 | 1014.2 |
| 20260504041529 | 42 | 0 | 0.0 | 0.0 | 0.00 | 0.00 | 0.00 | 70 | 1014.1 |
| 20260504041334 | 42 | 0 | 0.0 | 0.0 | 0.00 | 0.00 | 0.00 | 70 | 1014.2 |
| 20260504040732 | 42 | 0 | 0.0 | 0.0 | 0.00 | 0.00 | 0.00 | 70 | 1014.1 |
| 20260504040038 | 42 | 0 | 0.0 | 0.0 | 0.00 | 0.00 | 0.00 | 70 | 1014.1 |
| 20260504035843 | 42 | 0 | 0.0 | 0.0 | 0.00 | 0.00 | 0.00 | 69 | 1014.1 |
| 20260504035351 | 43 | 0 | 0.0 | 0.0 | 0.00 | 0.00 | 0.00 | 69 | 1014.1 |
| 20260504034539 | 43 | 0 | 0.0 | 0.0 | 0.00 | 0.00 | 0.00 | 69 | 1014.1 |
| 20260504034013 | 43 | 0 | 0.0 | 0.0 | 0.00 | 0.00 | 0.00 | 69 | 1014.2 |
| 20260504033517 | 43 | 0 | 0.0 | 0.0 | 0.00 | 0.00 | 0.00 | 67 | 1014.1 |
| 20260504033205 | 43 | 0 | 0.0 | 0.0 | 0.00 | 0.00 | 0.00 | 68 | 1014.0 |
| 20260504032610 | 43 | 0 | 0.0 | 0.0 | 0.00 | 0.00 | 0.00 | 67 | 1014.0 |
| 20260504032122 | 43 | 0 | 0.0 | 0.0 | 0.00 | 0.00 | 0.00 | 67 | 1013.8 |
| 20260504031534 | 43 | 0 | 0.0 | 0.0 | 0.00 | 0.00 | 0.00 | 67 | 1014.0 |
| 20260504031022 | 44 | 0 | 0.0 | 0.0 | 0.00 | 0.00 | 0.00 | 67 | 1014.0 |
| 20260504030555 | 44 | 0 | 0.0 | 1.7 | 0.00 | 0.00 | 0.00 | 66 | 1013.9 |
| 20260504030116 | 44 | 0 | 0.0 | 1.7 | 0.00 | 0.00 | 0.00 | 65 | 1013.8 |
| 20260504025514 | 44 | 0 | 0.0 | 0.9 | 0.00 | 0.00 | 0.00 | 66 | 1013.9 |
| 20260504025431 | 44 | 0 | 0.0 | 0.0 | 0.00 | 0.00 | 0.00 | 65 | 1013.8 |
| 20260504024557 | 44 | 0 | 0.0 | 0.0 | 0.00 | 0.00 | 0.00 | 64 | 1014.0 |
| 20260504024109 | 44 | 0 | 0.0 | 1.7 | 0.00 | 0.00 | 0.00 | 64 | 1014.0 |
| 20260504023727 | 44 | 0 | 0.0 | 1.7 | 0.00 | 0.00 | 0.00 | 64 | 1013.9 |
| 20260504023030 | 45 | 0 | 0.0 | 1.7 | 0.00 | 0.00 | 0.00 | 64 | 1013.9 |
| 20260504022514 | 45 | 0 | 0.0 | 0.0 | 0.00 | 0.00 | 0.00 | 64 | 1013.9 |
| 20260504022010 | 45 | 0 | 0.0 | 0.0 | 0.00 | 0.00 | 0.00 | 64 | 1014.0 |
| 20260504021533 | 45 | 0 | 0.0 | 1.7 | 0.00 | 0.00 | 0.00 | 63 | 1014.0 |
| 20260504021010 | 45 | 0 | 0.0 | 1.7 | 0.00 | 0.00 | 0.00 | 63 | 1013.9 |
| 20260504020510 | 45 | 0 | 0.0 | 0.0 | 0.00 | 0.00 | 0.00 | 62 | 1013.9 |
| 20260504020028 | 46 | 0 | 0.0 | 0.0 | 0.00 | 0.00 | 0.00 | 61 | 1014.0 |
| 20260504015510 | 46 | 0 | 0.0 | 0.0 | 0.00 | 0.00 | 0.00 | 61 | 1013.8 |
| 20260504015012 | 46 | 0 | 0.0 | 0.0 | 0.00 | 0.00 | 0.00 | 61 | 1013.8 |
| 20260504014530 | 46 | 0 | 0.0 | 0.0 | 0.00 | 0.00 | 0.00 | 60 | 1013.8 |
| 20260504014011 | 47 | 0 | 0.0 | 0.0 | 0.00 | 0.00 | 0.00 | 59 | 1013.7 |
| 20260504013511 | 47 | 0 | 0.0 | 0.0 | 0.00 | 0.00 | 0.00 | 59 | 1013.7 |
| 20260504013037 | 47 | 0 | 0.0 | 0.0 | 0.00 | 0.00 | 0.00 | 59 | 1013.7 |
| 20260504012511 | 47 | 0 | 0.0 | 0.0 | 0.00 | 0.00 | 0.00 | 57 | 1013.7 |
| 20260504012012 | 48 | 0 | 0.0 | 0.0 | 0.00 | 0.00 | 0.00 | 58 | 1013.7 |
| 20260504011528 | 48 | 0 | 0.0 | 0.0 | 0.00 | 0.00 | 0.00 | 57 | 1013.5 |
| 20260504011011 | 48 | 0 | 0.0 | 0.0 | 0.00 | 0.00 | 0.00 | 56 | 1013.4 |
| 20260504010509 | 48 | 0 | 0.0 | 0.0 | 0.00 | 0.00 | 0.00 | 56 | 1013.4 |
| 20260504010035 | 49 | 0 | 0.0 | 0.0 | 0.00 | 0.00 | 0.00 | 55 | 1013.3 |
| 20260504005514 | 49 | 0 | 0.0 | 0.0 | 0.00 | 0.00 | 0.00 | 54 | 1013.2 |
| 20260504005011 | 49 | 0 | 0.0 | 0.0 | 0.00 | 0.00 | 0.00 | 53 | 1013.2 |
| 20260504004531 | 50 | 0 | 0.0 | 0.0 | 0.00 | 0.00 | 0.00 | 53 | 1013.1 |
| 20260504004015 | 50 | 0 | 0.0 | 0.0 | 0.00 | 0.00 | 0.00 | 53 | 1013.1 |
| 20260504003513 | 51 | 0 | 0.0 | 0.0 | 0.00 | 0.00 | 0.00 | 53 | 1013.1 |
| 20260504003030 | 51 | 0 | 0.0 | 0.0 | 0.00 | 0.00 | 0.00 | 51 | 1013.0 |
| 20260504002511 | 51 | 0 | 0.0 | 0.0 | 0.00 | 0.00 | 0.00 | 50 | 1012.8 |
| 20260504002013 | 52 | 0 | 0.0 | 0.0 | 0.00 | 0.00 | 0.00 | 51 | 1012.7 |
| 20260504001532 | 52 | 0 | 0.0 | 0.0 | 0.00 | 0.00 | 0.00 | 49 | 1012.7 |
| 20260504001016 | 53 | 0 | 0.0 | 0.9 | 0.00 | 0.00 | 0.00 | 48 | 1012.7 |
| 20260504000515 | 53 | 0 | 0.0 | 3.5 | 0.00 | 0.00 | 0.00 | 48 | 1012.7 |
| 20260504000031 | 53 | 0 | 0.0 | 3.5 | 0.00 | 0.00 | 0.00 | 47 | 1012.6 |
| 20260503235514 | 54 | 0 | 0.0 | 3.5 | 0.00 | 0.00 | 0.00 | 46 | 1012.5 |
| 20260503235011 | 54 | 0 | 0.0 | 0.9 | 0.00 | 0.00 | 0.00 | 46 | 1012.5 |
| 20260503234534 | 54 | 0 | 0.0 | 0.9 | 0.00 | 0.00 | 0.00 | 46 | 1012.5 |
| 20260503234144 | 54 | 0 | 0.0 | 3.5 | 0.00 | 0.00 | 0.00 | 44 | 1012.3 |
| 20260503233514 | 55 | 0 | 0.0 | 3.5 | 0.00 | 0.00 | 0.00 | 44 | 1012.4 |
| 20260503233042 | 55 | 257 | 0.0 | 3.5 | 0.00 | 0.00 | 0.00 | 44 | 1012.4 |
| 20260503232514 | 55 | 257 | 0.0 | 3.5 | 0.00 | 0.00 | 0.00 | 44 | 1012.6 |
| 20260503232020 | 55 | 0 | 0.0 | 2.6 | 0.00 | 0.00 | 0.00 | 43 | 1012.5 |
| 20260503231530 | 55 | 0 | 0.0 | 2.6 | 0.00 | 0.00 | 0.00 | 43 | 1012.4 |
| 20260503231014 | 56 | 257 | 0.0 | 3.5 | 0.00 | 0.00 | 0.00 | 44 | 1012.3 |
| 20260503230514 | 56 | 0 | 0.0 | 3.5 | 0.00 | 0.00 | 0.00 | 41 | 1012.3 |
| 20260503230030 | 56 | 256 | 0.0 | 2.6 | 0.00 | 0.00 | 0.00 | 42 | 1012.2 |
| 20260503225512 | 56 | 266 | 0.0 | 3.5 | 0.00 | 0.00 | 0.00 | 42 | 1012.3 |
| 20260503225011 | 56 | 327 | 0.0 | 6.1 | 0.00 | 0.00 | 0.00 | 42 | 1012.3 |
| 20260503224531 | 56 | 0 | 0.9 | 8.7 | 0.00 | 0.00 | 0.00 | 40 | 1012.3 |
| 20260503224020 | 56 | 0 | 1.7 | 8.7 | 0.00 | 0.00 | 0.00 | 39 | 1012.3 |
| 20260503223513 | 56 | 0 | 0.0 | 3.5 | 0.00 | 0.00 | 0.00 | 40 | 1012.2 |
| 20260503223027 | 56 | 294 | 0.0 | 3.5 | 0.00 | 0.00 | 0.00 | 42 | 1012.2 |
| 20260503222511 | 56 | 0 | 0.0 | 3.5 | 0.00 | 0.00 | 0.00 | 41 | 1012.3 |
| 20260503222009 | 56 | 0 | 0.0 | 5.2 | 0.00 | 0.00 | 0.00 | 40 | 1012.4 |
| 20260503221538 | 56 | 0 | 0.0 | 5.2 | 0.00 | 0.00 | 0.00 | 40 | 1012.2 |
| 20260503221011 | 56 | 0 | 0.0 | 2.6 | 0.00 | 0.00 | 0.00 | 39 | 1012.3 |
| 20260503220511 | 57 | 0 | 0.0 | 7.0 | 0.00 | 0.00 | 0.00 | 39 | 1012.2 |
| 20260503220035 | 57 | 0 | 0.0 | 7.0 | 0.00 | 0.00 | 0.00 | 39 | 1012.3 |
| 20260503215513 | 57 | 9 | 0.9 | 7.0 | 0.00 | 0.00 | 0.00 | 39 | 1012.3 |
| 20260503215013 | 57 | 0 | 0.9 | 4.3 | 0.00 | 0.00 | 0.00 | 39 | 1012.3 |
| 20260503214529 | 57 | 203 | 0.0 | 4.3 | 0.00 | 0.00 | 0.00 | 40 | 1012.3 |
| 20260503214058 | 57 | 221 | 0.0 | 6.1 | 0.00 | 0.00 | 0.00 | 40 | 1012.3 |
| 20260503213514 | 57 | 114 | 0.9 | 8.7 | 0.00 | 0.00 | 0.00 | 38 | 1012.2 |
| 20260503213038 | 57 | 0 | 0.0 | 8.7 | 0.00 | 0.00 | 0.00 | 39 | 1012.2 |
| 20260503212513 | 57 | 0 | 0.9 | 8.7 | 0.00 | 0.00 | 0.00 | 37 | 1012.4 |
| 20260503212012 | 57 | 0 | 0.0 | 5.2 | 0.00 | 0.00 | 0.00 | 37 | 1012.4 |
| 20260503211533 | 57 | 313 | 0.9 | 7.8 | 0.00 | 0.00 | 0.00 | 36 | 1012.4 |
| 20260503211014 | 57 | 36 | 1.7 | 9.6 | 0.00 | 0.00 | 0.00 | 38 | 1012.3 |
| 20260503210509 | 57 | 0 | 0.9 | 9.6 | 0.00 | 0.00 | 0.00 | 36 | 1012.3 |
| 20260503210030 | 57 | 0 | 0.0 | 7.0 | 0.00 | 0.00 | 0.00 | 40 | 1012.4 |
| 20260503205510 | 57 | 223 | 1.7 | 7.0 | 0.00 | 0.00 | 0.00 | 38 | 1012.3 |
| 20260503205143 | 57 | 326 | 0.9 | 13.0 | 0.00 | 0.00 | 0.00 | 37 | 1012.4 |
| 20260503205027 | 57 | 326 | 0.9 | 13.0 | 0.00 | 0.00 | 0.00 | 37 | 1012.4 |
| 20260503204530 | 57 | 0 | 0.9 | 13.0 | 0.00 | 0.00 | 0.00 | 38 | 1012.4 |
| 20260503204012 | 57 | 196 | 2.6 | 13.0 | 0.00 | 0.00 | 0.00 | 37 | 1012.4 |
| 20260503203514 | 58 | 0 | 0.9 | 7.0 | 0.00 | 0.00 | 0.00 | 35 | 1012.5 |
| 20260503203029 | 59 | 0 | 0.0 | 12.2 | 0.00 | 0.00 | 0.00 | 35 | 1012.5 |
| 20260503202518 | 60 | 0 | 0.0 | 12.2 | 0.00 | 0.00 | 0.00 | 37 | 1012.5 |
| 20260503202012 | 60 | 53 | 0.9 | 12.2 | 0.00 | 0.00 | 0.00 | 36 | 1012.6 |
| 20260503201531 | 60 | 0 | 0.0 | 9.6 | 0.00 | 0.00 | 0.00 | 37 | 1012.7 |
| 20260503201013 | 60 | 0 | 1.7 | 9.6 | 0.00 | 0.00 | 0.00 | 35 | 1012.7 |
| 20260503200512 | 60 | 0 | 0.0 | 6.1 | 0.00 | 0.00 | 0.00 | 37 | 1012.7 |
| 20260503200116 | 60 | 259 | 0.0 | 6.1 | 0.00 | 0.00 | 0.00 | 36 | 1012.7 |
| 20260503195511 | 61 | 252 | 0.0 | 5.2 | 0.00 | 0.00 | 0.00 | 37 | 1012.8 |
| 20260503195012 | 60 | 167 | 0.0 | 9.6 | 0.00 | 0.00 | 0.00 | 37 | 1012.7 |
| 20260503194532 | 60 | 0 | 0.0 | 9.6 | 0.00 | 0.00 | 0.00 | 39 | 1012.8 |
| 20260503194013 | 60 | 0 | 0.9 | 10.4 | 0.00 | 0.00 | 0.00 | 36 | 1012.8 |
| 20260503193513 | 60 | 338 | 0.9 | 10.4 | 0.00 | 0.00 | 0.00 | 36 | 1012.8 |
| 20260503193036 | 60 | 0 | 1.7 | 10.4 | 0.00 | 0.00 | 0.00 | 36 | 1012.8 |
| 20260503192515 | 60 | 0 | 0.0 | 4.3 | 0.00 | 0.00 | 0.00 | 34 | 1012.7 |
| 20260503192020 | 61 | 0 | 0.0 | 4.3 | 0.00 | 0.00 | 0.00 | 36 | 1012.9 |
| 20260503191536 | 60 | 221 | 0.0 | 7.8 | 0.00 | 0.00 | 0.00 | 36 | 1012.9 |
| 20260503191020 | 60 | 209 | 0.9 | 7.8 | 0.00 | 0.00 | 0.00 | 36 | 1012.8 |
| 20260503190512 | 60 | 205 | 0.9 | 10.4 | 0.00 | 0.00 | 0.00 | 36 | 1013.0 |
| 20260503190029 | 61 | 0 | 1.7 | 10.4 | 0.00 | 0.00 | 0.00 | 34 | 1013.0 |
| 20260503185510 | 61 | 0 | 0.0 | 7.0 | 0.00 | 0.00 | 0.00 | 39 | 1012.9 |
| 20260503185013 | 60 | 5 | 0.0 | 7.0 | 0.00 | 0.00 | 0.00 | 39 | 1013.0 |
| 20260503184529 | 59 | 24 | 0.9 | 7.0 | 0.00 | 0.00 | 0.00 | 37 | 1013.0 |
| 20260503184012 | 58 | 0 | 0.0 | 7.0 | 0.00 | 0.00 | 0.00 | 37 | 1013.2 |
| 20260503183520 | 59 | 0 | 0.9 | 7.0 | 0.00 | 0.00 | 0.00 | 36 | 1013.1 |
| 20260503183037 | 60 | 225 | 0.9 | 10.4 | 0.00 | 0.00 | 0.00 | 36 | 1013.3 |
| 20260503182515 | 59 | 0 | 0.0 | 10.4 | 0.00 | 0.00 | 0.00 | 38 | 1013.3 |
| 20260503182016 | 59 | 161 | 0.9 | 10.4 | 0.00 | 0.00 | 0.00 | 38 | 1013.4 |
| 20260503181624 | 58 | 0 | 1.7 | 13.9 | 0.00 | 0.00 | 0.00 | 40 | 1013.4 |
| 20260503181011 | 58 | 0 | 1.7 | 13.9 | 0.00 | 0.00 | 0.00 | 36 | 1013.3 |
| 20260503180511 | 58 | 0 | 2.6 | 13.9 | 0.00 | 0.00 | 0.00 | 35 | 1013.3 |
| 20260503180032 | 59 | 229 | 0.0 | 6.1 | 0.00 | 0.00 | 0.00 | 41 | 1013.2 |
| 20260503175513 | 57 | 158 | 0.0 | 8.7 | 0.00 | 0.00 | 0.00 | 38 | 1013.3 |
| 20260503175013 | 58 | 0 | 1.7 | 8.7 | 0.00 | 0.00 | 0.00 | 37 | 1013.4 |
| 20260503174557 | 58 | 0 | 0.9 | 10.4 | 0.00 | 0.00 | 0.00 | 36 | 1013.4 |
| 20260503174029 | 59 | 160 | 1.7 | 10.4 | 0.00 | 0.00 | 0.00 | 34 | 1013.5 |
| 20260503173516 | 59 | 218 | 1.7 | 8.7 | 0.00 | 0.00 | 0.00 | 36 | 1013.5 |
| 20260503173044 | 58 | 0 | 0.0 | 7.8 | 0.00 | 0.00 | 0.00 | 40 | 1013.6 |
| 20260503172821 | 58 | 0 | 0.9 | 7.8 | 0.00 | 0.00 | 0.00 | 42 | 1013.5 |
| 20260503172719 | 58 | 0 | 0.9 | 7.8 | 0.00 | 0.00 | 0.00 | 42 | 1013.5 |
| 20260503172010 | 57 | 0 | 1.7 | 8.7 | 0.00 | 0.00 | 0.00 | 38 | 1013.6 |
| 20260503171528 | 56 | 0 | 0.9 | 11.3 | 0.00 | 0.00 | 0.00 | 39 | 1013.6 |
| 20260503171010 | 58 | 0 | 0.9 | 11.3 | 0.00 | 0.00 | 0.00 | 36 | 1013.5 |
| 20260503170615 | 58 | 204 | 0.9 | 11.3 | 0.00 | 0.00 | 0.00 | 37 | 1013.8 |
| 20260503170143 | 57 | 0 | 1.7 | 11.3 | 0.00 | 0.00 | 0.00 | 44 | 1013.6 |